English version Home page |
Updated on January 15, 2005 |
|
軌道要素Epoch 2004 Feb. 5.0 TT = JDT 2453040.5 T 2004 Feb. 22.6177 TT MPCM q 2.239590 (2000.0) P Q z +0.000303 Peri. 196.1386 -0.9762115 +0.0279836 +/-0.000001 Node 18.9999 -0.0328431 +0.9611088 e 0.999321 Incl. 138.6689 -0.2143184 -0.2747487 From 1564 observations 2003 Apr. 24-2004 Feb. 29, mean residual 0".6.
|
星図
|
光度変化H = 9.4 G = 0.15 [ ,-130] ( 〜2003年10月15日) m1 = 7.7 + 5 logΔ + 10.0 log r [-130, 0] (2003年10月15日〜2004年 2月22日) m1 = -20.4 + 5 logΔ + 90 log r [ 0, 90] (2004年 2月22日〜2004年 5月22日) m1 = 11.0 + 5 logΔ + 10 log r [ 90, ] (2004年 5月22日〜 ) ※ 灰色の曲線は、m1 = 7.7 + 5 logΔ + 10.0 log r の光度曲線です。
|
軌道要素はMPCのEphemerides and Orbital Elementsに掲載されたものです。
|